Location: Newark
(34.3481°N, 134.0494°E)
Time: 15:09:25
(UTC+00:00)

Vanguard 3 - Pass Details

Date: 31 January 2020
Orbit: 508 x 3263 km, 33.3° (Epoch: 25 February)

Event Time Altitude Azimuth Distance (km) Brightness Sun altitude
Rises 11:09:33 0° 282° (WNW) 7,193 13.0 -32.7°
Reaches altitude 10° 11:14:24 10° 280° (W) 6,205 12.4 -33.7°
Maximum altitude 11:34:05 73° 202° (SSW) 2,869 9.7 -37.8°
Enters shadow 11:37:56 58° 143° (SE) 2,883 9.5 -38.5°
Drops below altitude 10° 11:47:23 10° 120° (ESE) 4,407 - -40.5°
Sets 11:50:13 0° 118° (ESE) 5,098 - -41.1°
